CZ-6A DEB, 54295

Orbit data source: Space-Track

CZ-6A DEB, 54295 is space debris in SSO originally from a launch on Fri, 11 Nov 2022 UTC launched from the Taiyaun Space Center, China (TSC). Debris objects in space refer to the collection of defunct objects orbiting the Earth. Examples of debris include non-operational satellites, rocket bodies, and fragments generated from explosions, collisions, or faulty payload assembly.

Loading next visibility...
Identifier
54295, 2022-151AN
Orbit
SSO
Country
Flag of CNCN / PRC
Related business
Manufacturer
SAST
Mission
Spacecraft
Bus & Motor
Unknown
Mass
Unknown
Launch date (UTC)
2022-11-11 (4 years ago)
Launch vehicle
Unknown
Launch site
Taiyaun Space Center, China (TSC)
Object type
Payload
Rocket body
Debris
Shape & HBR
Unknown shape, 0.1 m
Radar Cross Section
Medium (>0.1 m² and <1 m²)

Expand to show TLE details & history
Last TLE update: 11 hours ago

TLE from 11 hours ago
0 CZ-6A DEB
1 54295U 22151AN  26254.50963505  .00002010  00000-0  70322-3 0  9998
2 54295  98.7343 269.4646 0138709 267.3923  91.1375 14.31061758198390
Epoch: 2026-09-11T12:13Z
TLE epoch observation values (Epoch: 2026-09-11T12:13:52.468Z)
Latitude
-0.00004°
Longitude
95.46403°
Altitude
794.465 km
Speed
7.455 km/s
True Right ascension
17h 57m 51s
True Declination
0° 00' 00"
Sunlit
Object was in daylight at epoch
Visualization orbit readout
Latitude
Unknown
Longitude
Unknown
Altitude
Unknown
Speed
Unknown
Apparent Right ascension
Unknown
Apparent Declination
Unknown
Sunlit
N/A
Visualization observer readout
Local Sidereal Time
15:14:32
Azimuth
Unknown
Elevation
Unknown
Doppler factor
Unknown
Orbital elements
Apogee altitude
884.692 km
Perigee altitude
685.964 km
Semi-major axis
7,163.465 km
Eccentricity
0.01387
Inclination
98.7343°
RAAN
269.4646°
Arg. of periapsis
267.3923°
True anomaly
92.72592°
Mean anomaly
91.1375°
Eccentric anomaly
91.93179°
Mean motion
3.5798 °/min
Orbital period
100.56 mins
BSTAR
0.00070322
Loading maneuver chart data...
Computing Atmospheric mass density...
Loading historical data...
Loading historical data...
Loading historical data...
Loading historical data...
Loading historical data...
Loading historical data...
Loading historical data...

Documentation

Showing up to 5 results
|